Airfield :







YOU CAN JOIN US ON...

 
LOGIN :

Register | Disclaimer

   EN    FR    IT 

 









Legend :    VFR   Marginal VFR   IFR   Intensive IFR   Very Intensive IFR
Visi :
Ceiling :
>= 8 km
>= 3000ft
5 to 8 km
1000 to 3000 ft
1500m to 5 km
500 to 1000 ft
800 to 1500m
200 to 500 ft
< 800m
< 200 ft
Symbols :   Thunderstorms  Fog  Heavy snow  Heavy precipitations  Wind > 20 kt






- Airport Elevation : 107 ft


KBVY - Beverly Municipal

CURRENT METAR :
  • 270453Z AUTO 06009KT 4SM BR OVC004 06/04 A2984 RMK AO2 PRESFR SLP100 T00560044 400830039

EXPIRED METARs :
  • 270353Z AUTO 07008KT 4SM BR OVC004 06/04 A2988 RMK AO2 SLP113 T00560044
  • 270253Z AUTO VRB06KT 10SM OVC002 06/04 A2990 RMK AO2 CIG 001V006 SLP123 T00560044 58013
  • 270238Z AUTO 08005KT 4SM BR OVC002 06/04 A2991 RMK AO2 T00560044

TAF N/A



MET'MAP, your aeronautical weather chart ! - Copyright ORBIFLY December 2007 - Disclaimer

ORBIFLY MET'MAP TEAM :

Programming & Development : Alexandra Zaïnal
Concept & original design : Baudouin d'Aumeries
Assistance for programming : Marc-Olivier Méhu
Technical & hardware support : Manuel Goepfert

Contact : metmap@orbifly.com




SOURCES & CREDITS :

   NOAA